{"data":{"norad_id":65755,"epoch":"2026-09-20T23:17:32.523648Z","epoch_age_seconds":68144,"freshness":"FRESH","line1":"1 65755U 25216X   26263.97051532  .00016320  00000+0  49317-3 0  9993","line2":"2 65755  53.1570 143.5818 0001338  88.8322 271.2834 15.34395380 56477","mean_motion":15.3439538,"eccentricity":0.0001338,"inclination_deg":53.157,"raan_deg":143.5818,"arg_perigee_deg":88.8322,"mean_anomaly_deg":271.2834,"bstar":0.00049317,"rev_number":5647,"period_min":93.84804065299,"perigee_km":461.80166559375,"apogee_km":463.63227811661,"semimajor_km":6840.8539718552,"source":"CELESTRAK","updated_at":"2026-09-21T09:00:35.711381Z"}}